Time,TemperatureF,DewpointF,PressureIn,WindDirection,WindDirectionDegrees,WindSpeedMPH,WindSpeedGustMPH,Humidity,HourlyPrecipIn,Conditions,Clouds,dailyrainin,SoftwareType,DateUTC
2013-08-12 00:00:00,60.7,59.2,30.06,NW,318,0.0,0.0,95,0.00,,,0.00,WUHU216DAVISWMX,2013-08-12 04:00:00,
2013-08-12 00:05:00,60.6,58.8,30.06,NW,318,0.0,0.0,94,0.00,,,0.00,WUHU216DAVISWMX,2013-08-12 04:05:00,
2013-08-12 00:10:00,60.4,58.9,30.06,NW,318,0.0,0.0,95,0.00,,,0.00,WUHU216DAVISWMX,2013-08-12 04:10:00,
2013-08-12 00:15:00,60.3,59.1,30.07,NW,318,0.0,0.0,96,0.00,,,0.00,WUHU216DAVISWMX,2013-08-12 04:15:00,
2013-08-12 00:20:00,60.2,58.7,30.07,NW,318,0.0,0.0,95,0.00,,,0.00,WUHU216DAVISWMX,2013-08-12 04:20:00,
2013-08-12 00:25:00,60.1,58.6,30.07,NW,318,0.0,0.0,95,0.00,,,0.00,WUHU216DAVISWMX,2013-08-12 04:25:00,
2013-08-12 00:30:00,60.0,58.5,30.07,NW,318,0.0,0.0,95,0.00,,,0.00,WUHU216DAVISWMX,2013-08-12 04:30:00,
2013-08-12 00:35:00,59.9,58.4,30.07,NW,318,0.0,0.0,95,0.00,,,0.00,WUHU216DAVISWMX,2013-08-12 04:35:00,
2013-08-12 00:40:00,59.8,58.3,30.07,NW,318,0.0,0.0,95,0.00,,,0.00,WUHU216DAVISWMX,2013-08-12 04:40:00,
2013-08-12 00:45:00,59.8,58.3,30.07,NW,318,0.0,0.0,95,0.00,,,0.00,WUHU216DAVISWMX,2013-08-12 04:45:00,
2013-08-12 00:50:00,59.6,58.1,30.07,NW,318,0.0,0.0,95,0.00,,,0.00,WUHU216DAVISWMX,2013-08-12 04:50:00,
2013-08-12 00:55:00,59.5,58.0,30.06,NW,318,0.0,0.0,95,0.00,,,0.00,WUHU216DAVISWMX,2013-08-12 04:55:00,
2013-08-12 01:00:00,59.4,57.9,30.07,NW,318,0.0,0.0,95,0.00,,,0.00,WUHU216DAVISWMX,2013-08-12 05:00:00,
2013-08-12 01:05:00,59.3,57.8,30.06,NW,318,0.0,0.0,95,0.00,,,0.00,WUHU216DAVISWMX,2013-08-12 05:05:00,
2013-08-12 01:10:00,59.2,58.0,30.06,NW,318,0.0,0.0,96,0.00,,,0.00,WUHU216DAVISWMX,2013-08-12 05:10:00,
2013-08-12 01:15:00,59.1,57.9,30.06,NW,318,0.0,0.0,96,0.00,,,0.00,WUHU216DAVISWMX,2013-08-12 05:15:00,
2013-08-12 01:20:00,59.0,57.8,30.06,NW,318,0.0,0.0,96,0.00,,,0.00,WUHU216DAVISWMX,2013-08-12 05:20:00,
2013-08-12 01:25:00,58.9,57.7,30.06,NW,318,0.0,0.0,96,0.00,,,0.00,WUHU216DAVISWMX,2013-08-12 05:25:00,
2013-08-12 01:30:00,58.8,57.6,30.06,NW,318,0.0,0.0,96,0.00,,,0.00,WUHU216DAVISWMX,2013-08-12 05:30:00,
2013-08-12 01:35:00,58.8,57.6,30.06,NW,318,0.0,0.0,96,0.00,,,0.00,WUHU216DAVISWMX,2013-08-12 05:35:00,
2013-08-12 01:40:00,58.6,57.4,30.06,NW,318,0.0,0.0,96,0.00,,,0.00,WUHU216DAVISWMX,2013-08-12 05:40:00,
2013-08-12 01:45:00,58.6,57.4,30.06,NW,318,0.0,0.0,96,0.00,,,0.00,WUHU216DAVISWMX,2013-08-12 05:45:00,
2013-08-12 01:50:00,58.5,57.3,30.06,NW,318,0.0,0.0,96,0.00,,,0.00,WUHU216DAVISWMX,2013-08-12 05:50:00,
2013-08-12 01:55:00,58.5,57.3,30.06,NW,318,0.0,0.0,96,0.00,,,0.00,WUHU216DAVISWMX,2013-08-12 05:55:00,
2013-08-12 02:00:00,58.3,57.1,30.07,NW,318,0.0,0.0,96,0.00,,,0.00,WUHU216DAVISWMX,2013-08-12 06:00:00,
2013-08-12 02:05:00,58.3,57.4,30.06,NW,318,0.0,0.0,97,0.00,,,0.00,WUHU216DAVISWMX,2013-08-12 06:05:00,
2013-08-12 02:10:00,58.2,57.3,30.06,NW,318,0.0,0.0,97,0.00,,,0.00,WUHU216DAVISWMX,2013-08-12 06:10:00,
2013-08-12 02:15:00,58.1,57.2,30.07,NW,318,0.0,0.0,97,0.00,,,0.00,WUHU216DAVISWMX,2013-08-12 06:15:00,
2013-08-12 02:20:00,58.1,57.2,30.07,NW,318,0.0,0.0,97,0.00,,,0.00,WUHU216DAVISWMX,2013-08-12 06:20:00,
2013-08-12 02:25:00,58.0,57.1,30.07,NW,318,0.0,0.0,97,0.00,,,0.00,WUHU216DAVISWMX,2013-08-12 06:25:00,
2013-08-12 02:30:00,57.9,56.7,30.07,NW,318,0.0,0.0,96,0.00,,,0.00,WUHU216DAVISWMX,2013-08-12 06:30:00,
2013-08-12 02:35:00,57.9,57.0,30.07,NW,318,0.0,0.0,97,0.00,,,0.00,WUHU216DAVISWMX,2013-08-12 06:35:00,
2013-08-12 02:40:00,57.8,56.6,30.07,NW,318,0.0,0.0,96,0.00,,,0.00,WUHU216DAVISWMX,2013-08-12 06:40:00,
2013-08-12 02:45:00,57.8,56.9,30.07,NW,318,0.0,0.0,97,0.00,,,0.00,WUHU216DAVISWMX,2013-08-12 06:45:00,
2013-08-12 02:50:00,57.8,56.9,30.06,NW,318,0.0,0.0,97,0.00,,,0.00,WUHU216DAVISWMX,2013-08-12 06:50:00,
2013-08-12 02:55:00,57.7,56.8,30.07,NW,318,0.0,0.0,97,0.00,,,0.00,WUHU216DAVISWMX,2013-08-12 06:55:00,
2013-08-12 03:00:00,57.7,56.5,30.07,NW,318,0.0,0.0,96,0.00,,,0.00,WUHU216DAVISWMX,2013-08-12 07:00:00,
2013-08-12 03:05:00,57.6,56.4,30.06,NW,318,0.0,0.0,96,0.00,,,0.00,WUHU216DAVISWMX,2013-08-12 07:05:00,
2013-08-12 03:10:00,57.5,56.6,30.06,NW,318,0.0,0.0,97,0.00,,,0.00,WUHU216DAVISWMX,2013-08-12 07:10:00,
2013-08-12 03:15:00,57.4,56.5,30.06,NW,318,0.0,0.0,97,0.00,,,0.00,WUHU216DAVISWMX,2013-08-12 07:15:00,
2013-08-12 03:20:00,57.4,56.2,30.06,NW,318,0.0,0.0,96,0.00,,,0.00,WUHU216DAVISWMX,2013-08-12 07:20:00,
2013-08-12 03:25:00,57.4,56.5,30.06,NW,318,0.0,0.0,97,0.00,,,0.00,WUHU216DAVISWMX,2013-08-12 07:25:00,
2013-08-12 03:30:00,57.3,56.7,30.06,NW,318,0.0,0.0,98,0.00,,,0.00,WUHU216DAVISWMX,2013-08-12 07:30:00,
2013-08-12 03:35:00,57.2,56.3,30.06,NW,318,0.0,0.0,97,0.00,,,0.00,WUHU216DAVISWMX,2013-08-12 07:35:00,
2013-08-12 03:40:00,57.2,56.6,30.06,NW,318,0.0,0.0,98,0.00,,,0.00,WUHU216DAVISWMX,2013-08-12 07:40:00,
2013-08-12 03:45:00,57.2,56.6,30.06,NW,318,0.0,0.0,98,0.00,,,0.00,WUHU216DAVISWMX,2013-08-12 07:45:00,
2013-08-12 03:50:00,57.3,56.7,30.06,NW,318,0.0,0.0,98,0.00,,,0.00,WUHU216DAVISWMX,2013-08-12 07:50:00,
2013-08-12 03:55:00,57.2,56.6,30.06,NW,318,0.0,0.0,98,0.00,,,0.00,WUHU216DAVISWMX,2013-08-12 07:55:00,
2013-08-12 04:00:00,57.1,56.5,30.06,NW,318,0.0,0.0,98,0.00,,,0.00,WUHU216DAVISWMX,2013-08-12 08:00:00,
2013-08-12 04:05:00,57.1,56.5,30.06,NW,318,0.0,0.0,98,0.00,,,0.00,WUHU216DAVISWMX,2013-08-12 08:05:00,
2013-08-12 04:10:00,57.1,56.2,30.06,NW,318,0.0,0.0,97,0.00,,,0.00,WUHU216DAVISWMX,2013-08-12 08:10:00,
2013-08-12 04:15:00,57.1,56.5,30.06,NW,318,0.0,0.0,98,0.00,,,0.00,WUHU216DAVISWMX,2013-08-12 08:15:00,
2013-08-12 04:20:00,56.9,56.3,30.06,NW,318,0.0,0.0,98,0.00,,,0.00,WUHU216DAVISWMX,2013-08-12 08:20:00,
2013-08-12 04:25:00,56.9,56.3,30.05,NW,318,0.0,0.0,98,0.00,,,0.00,WUHU216DAVISWMX,2013-08-12 08:25:00,
2013-08-12 04:30:00,57.0,56.4,30.06,NW,318,0.0,0.0,98,0.00,,,0.00,WUHU216DAVISWMX,2013-08-12 08:30:00,
2013-08-12 04:36:00,57.0,56.1,30.05,NW,318,0.0,0.0,97,0.00,,,0.00,WUHU216DAVISWMX,2013-08-12 08:36:00,
2013-08-12 04:41:00,56.8,56.2,30.05,NW,318,0.0,0.0,98,0.00,,,0.00,WUHU216DAVISWMX,2013-08-12 08:41:00,
2013-08-12 04:46:00,56.8,56.2,30.05,NW,318,0.0,0.0,98,0.00,,,0.00,WUHU216DAVISWMX,2013-08-12 08:46:00,
2013-08-12 04:51:00,56.8,56.2,30.06,NW,318,0.0,0.0,98,0.00,,,0.00,WUHU216DAVISWMX,2013-08-12 08:51:00,
2013-08-12 04:56:00,56.9,56.6,30.05,NW,318,0.0,0.0,99,0.00,,,0.00,WUHU216DAVISWMX,2013-08-12 08:56:00,
2013-08-12 05:01:00,57.1,56.8,30.05,NW,318,0.0,0.0,99,0.00,,,0.00,WUHU216DAVISWMX,2013-08-12 09:01:00,
2013-08-12 05:06:00,57.2,56.9,30.05,NW,318,0.0,0.0,99,0.00,,,0.00,WUHU216DAVISWMX,2013-08-12 09:06:00,
2013-08-12 05:11:00,57.2,56.9,30.05,NW,318,0.0,0.0,99,0.00,,,0.00,WUHU216DAVISWMX,2013-08-12 09:11:00,
2013-08-12 05:16:00,57.0,56.7,30.06,NW,318,0.0,0.0,99,0.00,,,0.00,WUHU216DAVISWMX,2013-08-12 09:16:00,
2013-08-12 05:21:00,57.1,57.1,30.06,NW,318,0.0,0.0,100,0.00,,,0.00,WUHU216DAVISWMX,2013-08-12 09:21:00,
2013-08-12 05:26:00,57.1,57.1,30.06,NW,318,0.0,0.0,100,0.00,,,0.00,WUHU216DAVISWMX,2013-08-12 09:26:00,
2013-08-12 05:31:00,57.1,56.8,30.06,NW,318,0.0,0.0,99,0.00,,,0.00,WUHU216DAVISWMX,2013-08-12 09:31:00,
2013-08-12 05:36:00,57.2,56.9,30.06,NW,318,0.0,0.0,99,0.00,,,0.00,WUHU216DAVISWMX,2013-08-12 09:36:00,
2013-08-12 05:41:00,57.2,56.9,30.06,NW,318,0.0,0.0,99,0.00,,,0.00,WUHU216DAVISWMX,2013-08-12 09:41:00,
2013-08-12 05:46:00,57.2,56.9,30.06,NW,318,0.0,0.0,99,0.00,,,0.00,WUHU216DAVISWMX,2013-08-12 09:46:00,
2013-08-12 05:51:00,57.2,56.9,30.06,NW,318,0.0,0.0,99,0.00,,,0.00,WUHU216DAVISWMX,2013-08-12 09:51:00,
2013-08-12 05:56:00,57.1,56.8,30.06,NW,318,0.0,0.0,99,0.00,,,0.00,WUHU216DAVISWMX,2013-08-12 09:56:00,
2013-08-12 06:01:00,57.1,56.8,30.06,NW,318,0.0,0.0,99,0.00,,,0.00,WUHU216DAVISWMX,2013-08-12 10:01:00,
2013-08-12 06:06:00,57.2,57.2,30.06,NW,318,0.0,0.0,100,0.00,,,0.00,WUHU216DAVISWMX,2013-08-12 10:06:00,
2013-08-12 06:11:00,57.1,57.1,30.06,NW,318,0.0,0.0,100,0.00,,,0.00,WUHU216DAVISWMX,2013-08-12 10:11:00,
2013-08-12 06:16:00,57.2,57.2,30.06,NW,318,0.0,0.0,100,0.00,,,0.00,WUHU216DAVISWMX,2013-08-12 10:16:00,
2013-08-12 06:21:00,57.3,57.0,30.06,NW,318,0.0,0.0,99,0.00,,,0.00,WUHU216DAVISWMX,2013-08-12 10:21:00,
2013-08-12 06:26:00,57.4,57.4,30.06,NW,318,0.0,0.0,100,0.00,,,0.00,WUHU216DAVISWMX,2013-08-12 10:26:00,
2013-08-12 06:31:00,57.5,57.2,30.07,NW,318,0.0,0.0,99,0.00,,,0.00,WUHU216DAVISWMX,2013-08-12 10:31:00,
2013-08-12 06:36:00,57.6,57.3,30.07,NW,318,0.0,0.0,99,0.00,,,0.00,WUHU216DAVISWMX,2013-08-12 10:36:00,
2013-08-12 06:41:00,57.7,57.7,30.07,NW,318,0.0,0.0,100,0.00,,,0.00,WUHU216DAVISWMX,2013-08-12 10:41:00,
2013-08-12 06:46:00,57.8,57.8,30.07,NW,318,0.0,0.0,100,0.00,,,0.00,WUHU216DAVISWMX,2013-08-12 10:46:00,
2013-08-12 06:51:00,58.0,58.0,30.07,NW,318,0.0,0.0,100,0.00,,,0.00,WUHU216DAVISWMX,2013-08-12 10:51:00,
2013-08-12 06:56:00,58.1,58.1,30.07,NW,318,0.0,0.0,100,0.00,,,0.00,WUHU216DAVISWMX,2013-08-12 10:56:00,
2013-08-12 07:01:00,58.1,58.1,30.07,NW,318,0.0,0.0,100,0.00,,,0.00,WUHU216DAVISWMX,2013-08-12 11:01:00,
2013-08-12 07:06:00,58.2,58.2,30.07,NW,318,0.0,0.0,100,0.00,,,0.00,WUHU216DAVISWMX,2013-08-12 11:06:00,
2013-08-12 07:11:00,58.2,58.2,30.07,NW,318,0.0,0.0,100,0.00,,,0.00,WUHU216DAVISWMX,2013-08-12 11:11:00,
2013-08-12 07:16:00,58.3,58.3,30.07,NW,318,0.0,0.0,100,0.00,,,0.00,WUHU216DAVISWMX,2013-08-12 11:16:00,
2013-08-12 07:21:00,58.4,58.4,30.07,NW,318,0.0,0.0,100,0.00,,,0.00,WUHU216DAVISWMX,2013-08-12 11:21:00,
2013-08-12 07:26:00,58.7,58.7,30.07,NW,318,0.0,0.0,100,0.00,,,0.00,WUHU216DAVISWMX,2013-08-12 11:26:00,
2013-08-12 07:31:00,59.0,59.0,30.07,NW,318,0.0,0.0,100,0.00,,,0.00,WUHU216DAVISWMX,2013-08-12 11:31:00,
2013-08-12 07:36:00,59.3,59.3,30.07,NW,318,0.0,0.0,100,0.00,,,0.00,WUHU216DAVISWMX,2013-08-12 11:36:00,
2013-08-12 07:41:00,59.6,59.6,30.07,NW,318,0.0,0.0,100,0.00,,,0.00,WUHU216DAVISWMX,2013-08-12 11:41:00,
2013-08-12 07:46:00,59.9,59.9,30.07,NW,318,0.0,0.0,100,0.00,,,0.00,WUHU216DAVISWMX,2013-08-12 11:46:00,
2013-08-12 07:51:00,60.3,60.3,30.07,NW,318,0.0,0.0,100,0.00,,,0.00,WUHU216DAVISWMX,2013-08-12 11:51:00,
2013-08-12 07:56:00,60.6,60.6,30.07,NW,318,0.0,0.0,100,0.00,,,0.00,WUHU216DAVISWMX,2013-08-12 11:56:00,
2013-08-12 08:01:00,60.8,60.8,30.07,NW,318,0.0,0.0,100,0.00,,,0.00,WUHU216DAVISWMX,2013-08-12 12:01:00,
2013-08-12 08:06:00,61.2,61.2,30.07,NW,318,0.0,0.0,100,0.00,,,0.00,WUHU216DAVISWMX,2013-08-12 12:06:00,
2013-08-12 08:11:00,61.7,61.7,30.06,NW,318,0.0,0.0,100,0.00,,,0.00,WUHU216DAVISWMX,2013-08-12 12:11:00,
2013-08-12 08:16:00,62.2,62.2,30.06,NW,318,0.0,0.0,100,0.00,,,0.00,WUHU216DAVISWMX,2013-08-12 12:16:00,
2013-08-12 08:21:00,62.6,62.6,30.07,NW,318,0.0,0.0,100,0.00,,,0.00,WUHU216DAVISWMX,2013-08-12 12:21:00,
2013-08-12 08:26:00,63.2,63.2,30.07,NW,318,0.0,1.0,100,0.00,,,0.00,WUHU216DAVISWMX,2013-08-12 12:26:00,
2013-08-12 08:31:00,63.9,63.6,30.06,WNW,300,1.0,1.0,99,0.00,,,0.00,WUHU216DAVISWMX,2013-08-12 12:31:00,
2013-08-12 08:36:00,64.8,63.9,30.06,SSW,193,1.0,2.0,97,0.00,,,0.00,WUHU216DAVISWMX,2013-08-12 12:36:00,
2013-08-12 08:41:00,65.4,63.6,30.06,SSW,211,0.0,2.0,94,0.00,,,0.00,WUHU216DAVISWMX,2013-08-12 12:41:00,
2013-08-12 08:46:00,66.4,64.0,30.06,SSW,211,0.0,2.0,92,0.00,,,0.00,WUHU216DAVISWMX,2013-08-12 12:46:00,
2013-08-12 08:51:00,67.3,65.2,30.06,SSW,211,0.0,2.0,93,0.00,,,0.00,WUHU216DAVISWMX,2013-08-12 12:51:00,
2013-08-12 08:56:00,68.0,64.0,30.06,North,355,2.0,2.0,87,0.00,,,0.00,WUHU216DAVISWMX,2013-08-12 12:56:00,
2013-08-12 09:01:00,68.6,63.9,30.05,SW,225,0.0,2.0,85,0.00,,,0.00,WUHU216DAVISWMX,2013-08-12 13:01:00,
2013-08-12 09:06:00,69.3,63.6,30.05,NW,318,1.0,2.0,82,0.00,,,0.00,WUHU216DAVISWMX,2013-08-12 13:06:00,
2013-08-12 09:11:00,69.6,63.6,30.05,NW,318,0.0,3.0,81,0.00,,,0.00,WUHU216DAVISWMX,2013-08-12 13:11:00,
2013-08-12 09:16:00,70.3,64.6,30.05,NW,318,1.0,3.0,82,0.00,,,0.00,WUHU216DAVISWMX,2013-08-12 13:16:00,
2013-08-12 09:21:00,70.5,64.1,30.05,NW,318,0.0,2.0,80,0.00,,,0.00,WUHU216DAVISWMX,2013-08-12 13:21:00,
2013-08-12 09:26:00,71.1,65.0,30.04,SW,233,1.0,3.0,81,0.00,,,0.00,WUHU216DAVISWMX,2013-08-12 13:26:00,
2013-08-12 09:31:00,71.5,65.1,30.04,SW,232,0.0,3.0,80,0.00,,,0.00,WUHU216DAVISWMX,2013-08-12 13:31:00,
2013-08-12 09:36:00,72.3,65.5,30.04,SW,232,0.0,2.0,79,0.00,,,0.00,WUHU216DAVISWMX,2013-08-12 13:36:00,
2013-08-12 09:41:00,72.7,64.8,30.04,NW,311,2.0,2.0,76,0.00,,,0.00,WUHU216DAVISWMX,2013-08-12 13:41:00,
2013-08-12 09:46:00,73.2,64.9,30.05,NW,315,0.0,2.0,75,0.00,,,0.00,WUHU216DAVISWMX,2013-08-12 13:46:00,
2013-08-12 09:51:00,73.6,66.1,30.05,NW,315,0.0,2.0,77,0.00,,,0.00,WUHU216DAVISWMX,2013-08-12 13:51:00,
2013-08-12 09:56:00,74.3,66.8,30.04,NW,314,1.0,2.0,77,0.00,,,0.00,WUHU216DAVISWMX,2013-08-12 13:56:00,
2013-08-12 10:01:00,74.6,64.8,30.04,NW,314,0.0,3.0,71,0.00,,,0.00,WUHU216DAVISWMX,2013-08-12 14:01:00,
2013-08-12 10:06:00,74.9,66.6,30.04,NW,315,0.0,3.0,75,0.00,,,0.00,WUHU216DAVISWMX,2013-08-12 14:06:00,
2013-08-12 10:11:00,75.3,66.6,30.05,SW,235,2.0,3.0,74,0.00,,,0.00,WUHU216DAVISWMX,2013-08-12 14:11:00,
2013-08-12 10:16:00,75.6,65.3,30.04,NW,320,0.0,3.0,70,0.00,,,0.00,WUHU216DAVISWMX,2013-08-12 14:16:00,
2013-08-12 10:21:00,75.9,67.2,30.04,NW,314,0.0,3.0,74,0.00,,,0.00,WUHU216DAVISWMX,2013-08-12 14:21:00,
2013-08-12 10:26:00,76.2,66.7,30.04,WSW,257,1.0,3.0,72,0.00,,,0.00,WUHU216DAVISWMX,2013-08-12 14:26:00,
2013-08-12 10:31:00,76.3,65.6,30.04,West,271,0.0,3.0,69,0.00,,,0.00,WUHU216DAVISWMX,2013-08-12 14:31:00,
2013-08-12 10:36:00,76.5,64.5,30.04,NW,319,1.0,4.0,66,0.00,,,0.00,WUHU216DAVISWMX,2013-08-12 14:36:00,
2013-08-12 10:41:00,76.2,64.2,30.04,NW,320,1.0,4.0,66,0.00,,,0.00,WUHU216DAVISWMX,2013-08-12 14:41:00,
2013-08-12 10:46:00,76.4,65.3,30.04,WNW,300,0.0,3.0,68,0.00,,,0.00,WUHU216DAVISWMX,2013-08-12 14:46:00,
2013-08-12 10:51:00,76.6,65.5,30.04,South,189,0.0,3.0,68,0.00,,,0.00,WUHU216DAVISWMX,2013-08-12 14:51:00,
2013-08-12 10:56:00,77.0,66.3,30.04,WNW,284,1.0,5.0,69,0.00,,,0.00,WUHU216DAVISWMX,2013-08-12 14:56:00,
2013-08-12 11:01:00,77.0,65.4,30.04,NE,53,0.0,5.0,67,0.00,,,0.00,WUHU216DAVISWMX,2013-08-12 15:01:00,
2013-08-12 11:06:00,77.0,65.8,30.04,SSE,167,0.0,2.0,68,0.00,,,0.00,WUHU216DAVISWMX,2013-08-12 15:06:00,
2013-08-12 11:11:00,77.3,64.8,30.04,NNW,331,2.0,3.0,65,0.00,,,0.00,WUHU216DAVISWMX,2013-08-12 15:11:00,
2013-08-12 11:16:00,77.2,64.8,30.04,NW,314,1.0,3.0,65,0.00,,,0.00,WUHU216DAVISWMX,2013-08-12 15:16:00,
2013-08-12 11:21:00,77.3,64.0,30.03,SW,227,1.0,3.0,63,0.00,,,0.00,WUHU216DAVISWMX,2013-08-12 15:21:00,
2013-08-12 11:26:00,77.5,65.5,30.04,NW,321,1.0,6.0,66,0.00,,,0.00,WUHU216DAVISWMX,2013-08-12 15:26:00,
2013-08-12 11:31:00,77.2,64.8,30.04,WNW,286,2.0,6.0,65,0.00,,,0.00,WUHU216DAVISWMX,2013-08-12 15:31:00,
2013-08-12 11:36:00,77.5,63.2,30.03,WSW,258,0.0,4.0,61,0.00,,,0.00,WUHU216DAVISWMX,2013-08-12 15:36:00,
2013-08-12 11:41:00,77.6,63.8,30.03,NW,317,1.0,4.0,62,0.00,,,0.00,WUHU216DAVISWMX,2013-08-12 15:41:00,
2013-08-12 11:46:00,77.6,64.7,30.03,WSW,249,0.0,4.0,64,0.00,,,0.00,WUHU216DAVISWMX,2013-08-12 15:46:00,
2013-08-12 11:51:00,78.0,64.6,30.03,SW,217,0.0,3.0,63,0.00,,,0.00,WUHU216DAVISWMX,2013-08-12 15:51:00,
2013-08-12 11:56:00,78.1,65.6,30.02,SW,218,0.0,2.0,65,0.00,,,0.00,WUHU216DAVISWMX,2013-08-12 15:56:00,
2013-08-12 12:01:00,78.2,64.3,30.03,NW,318,3.0,5.0,62,0.00,,,0.00,WUHU216DAVISWMX,2013-08-12 16:01:00,
2013-08-12 12:06:00,78.0,63.2,30.02,SW,214,2.0,5.0,60,0.00,,,0.00,WUHU216DAVISWMX,2013-08-12 16:06:00,
2013-08-12 12:11:00,78.1,64.3,30.02,NW,321,3.0,3.0,62,0.00,,,0.00,WUHU216DAVISWMX,2013-08-12 16:11:00,
2013-08-12 12:16:00,78.0,64.2,30.02,NNW,327,0.0,3.0,62,0.00,,,0.00,WUHU216DAVISWMX,2013-08-12 16:16:00,
2013-08-12 12:21:00,78.2,63.9,30.02,NNW,327,0.0,3.0,61,0.00,,,0.00,WUHU216DAVISWMX,2013-08-12 16:21:00,
2013-08-12 12:26:00,78.3,64.0,30.02,NNW,327,1.0,3.0,61,0.00,,,0.00,WUHU216DAVISWMX,2013-08-12 16:26:00,
2013-08-12 12:31:00,78.2,63.4,30.02,NNW,327,0.0,3.0,60,0.00,,,0.00,WUHU216DAVISWMX,2013-08-12 16:31:00,
2013-08-12 12:36:00,78.3,64.0,30.01,NNW,327,0.0,2.0,61,0.00,,,0.00,WUHU216DAVISWMX,2013-08-12 16:36:00,
2013-08-12 12:41:00,78.3,64.9,30.01,NNW,327,1.0,2.0,63,0.00,,,0.00,WUHU216DAVISWMX,2013-08-12 16:41:00,
2013-08-12 12:46:00,78.5,64.6,30.01,NE,51,2.0,2.0,62,0.00,,,0.00,WUHU216DAVISWMX,2013-08-12 16:46:00,
2013-08-12 12:51:00,78.4,64.1,30.01,NE,51,0.0,2.0,61,0.00,,,0.00,WUHU216DAVISWMX,2013-08-12 16:51:00,
2013-08-12 12:56:00,78.5,64.6,30.01,NW,318,3.0,3.0,62,0.00,,,0.00,WUHU216DAVISWMX,2013-08-12 16:56:00,
2013-08-12 13:01:00,78.5,65.1,30.01,NW,317,0.0,3.0,63,0.00,,,0.00,WUHU216DAVISWMX,2013-08-12 17:01:00,
2013-08-12 13:06:00,78.8,64.9,30.01,SSW,208,0.0,3.0,62,0.00,,,0.00,WUHU216DAVISWMX,2013-08-12 17:06:00,
2013-08-12 13:11:00,79.0,64.2,30.00,NW,318,1.0,5.0,60,0.00,,,0.00,WUHU216DAVISWMX,2013-08-12 17:11:00,
2013-08-12 13:16:00,79.3,66.3,30.01,WSW,237,1.0,5.0,64,0.00,,,0.00,WUHU216DAVISWMX,2013-08-12 17:16:00,
2013-08-12 13:21:00,79.5,65.6,30.01,SW,236,0.0,3.0,62,0.00,,,0.00,WUHU216DAVISWMX,2013-08-12 17:21:00,
2013-08-12 13:26:00,79.6,65.7,30.01,West,262,1.0,3.0,62,0.00,,,0.00,WUHU216DAVISWMX,2013-08-12 17:26:00,
2013-08-12 13:31:00,79.6,66.1,30.01,West,263,0.0,3.0,63,0.00,,,0.00,WUHU216DAVISWMX,2013-08-12 17:31:00,
2013-08-12 13:36:00,79.6,66.1,30.01,SW,224,2.0,4.0,63,0.00,,,0.00,WUHU216DAVISWMX,2013-08-12 17:36:00,
2013-08-12 13:41:00,80.0,66.5,30.00,SSE,167,0.0,4.0,63,0.00,,,0.00,WUHU216DAVISWMX,2013-08-12 17:41:00,
2013-08-12 13:46:00,80.1,65.2,30.00,SSE,167,0.0,2.0,60,0.00,,,0.00,WUHU216DAVISWMX,2013-08-12 17:46:00,
2013-08-12 13:51:00,79.8,65.9,30.00,WSW,237,1.0,3.0,62,0.00,,,0.00,WUHU216DAVISWMX,2013-08-12 17:51:00,
2013-08-12 13:56:00,79.4,65.5,30.00,WNW,298,0.0,3.0,62,0.00,,,0.00,WUHU216DAVISWMX,2013-08-12 17:56:00,
2013-08-12 14:01:00,79.3,66.3,30.00,NW,313,3.0,3.0,64,0.00,,,0.00,WUHU216DAVISWMX,2013-08-12 18:01:00,
2013-08-12 14:06:00,79.6,67.0,30.00,NW,310,0.0,3.0,65,0.00,,,0.00,WUHU216DAVISWMX,2013-08-12 18:06:00,
2013-08-12 14:11:00,79.6,66.1,30.00,WNW,301,2.0,3.0,63,0.00,,,0.00,WUHU216DAVISWMX,2013-08-12 18:11:00,
2013-08-12 14:16:00,79.8,66.8,29.99,WNW,300,0.0,3.0,64,0.00,,,0.00,WUHU216DAVISWMX,2013-08-12 18:16:00,
2013-08-12 14:21:00,79.7,64.3,30.00,NW,322,3.0,5.0,59,0.00,,,0.00,WUHU216DAVISWMX,2013-08-12 18:21:00,
2013-08-12 14:26:00,79.7,65.3,30.00,NW,314,0.0,5.0,61,0.00,,,0.00,WUHU216DAVISWMX,2013-08-12 18:26:00,
2013-08-12 14:31:00,79.5,65.1,30.00,WNW,288,2.0,4.0,61,0.00,,,0.00,WUHU216DAVISWMX,2013-08-12 18:31:00,
2013-08-12 14:37:00,79.7,66.2,30.00,WNW,300,0.0,3.0,63,0.00,,,0.00,WUHU216DAVISWMX,2013-08-12 18:37:00,
2013-08-12 14:42:00,79.7,65.3,29.99,NW,314,1.0,3.0,61,0.00,,,0.00,WUHU216DAVISWMX,2013-08-12 18:42:00,
2013-08-12 14:47:00,79.6,66.1,29.99,West,277,3.0,5.0,63,0.00,,,0.00,WUHU216DAVISWMX,2013-08-12 18:47:00,
2013-08-12 14:52:00,79.8,65.4,29.99,WNW,292,0.0,5.0,61,0.00,,,0.00,WUHU216DAVISWMX,2013-08-12 18:52:00,
2013-08-12 14:57:00,80.1,66.1,29.99,SW,228,1.0,4.0,62,0.00,,,0.00,WUHU216DAVISWMX,2013-08-12 18:57:00,
2013-08-12 15:02:00,80.2,66.7,29.99,WSW,244,2.0,4.0,63,0.00,,,0.00,WUHU216DAVISWMX,2013-08-12 19:02:00,
2013-08-12 15:07:00,80.2,66.2,29.98,West,270,0.0,4.0,62,0.00,,,0.00,WUHU216DAVISWMX,2013-08-12 19:07:00,
2013-08-12 15:12:00,80.2,66.7,29.98,NW,324,1.0,5.0,63,0.00,,,0.00,WUHU216DAVISWMX,2013-08-12 19:12:00,
2013-08-12 15:17:00,79.6,64.7,29.98,NW,324,0.0,5.0,60,0.00,,,0.00,WUHU216DAVISWMX,2013-08-12 19:17:00,
2013-08-12 15:22:00,79.6,64.7,29.98,NW,320,2.0,2.0,60,0.00,,,0.00,WUHU216DAVISWMX,2013-08-12 19:22:00,
2013-08-12 15:27:00,79.2,65.3,29.98,WSW,238,3.0,3.0,62,0.00,,,0.00,WUHU216DAVISWMX,2013-08-12 19:27:00,
2013-08-12 15:32:00,79.1,66.1,29.98,SSW,196,0.0,5.0,64,0.00,,,0.00,WUHU216DAVISWMX,2013-08-12 19:32:00,
2013-08-12 15:37:00,78.8,65.4,29.98,SSW,196,1.0,5.0,63,0.00,,,0.00,WUHU216DAVISWMX,2013-08-12 19:37:00,
2013-08-12 15:42:00,78.6,66.5,29.98,SSW,196,0.0,2.0,66,0.00,,,0.00,WUHU216DAVISWMX,2013-08-12 19:42:00,
2013-08-12 15:47:00,78.4,66.3,29.98,SSW,196,1.0,1.0,66,0.00,,,0.00,WUHU216DAVISWMX,2013-08-12 19:47:00,
2013-08-12 15:52:00,78.5,66.0,29.98,SSW,192,1.0,4.0,65,0.00,,,0.00,WUHU216DAVISWMX,2013-08-12 19:52:00,
2013-08-12 15:57:00,78.6,65.6,29.98,SW,217,2.0,4.0,64,0.00,,,0.00,WUHU216DAVISWMX,2013-08-12 19:57:00,
2013-08-12 16:02:00,78.6,66.1,29.97,South,176,1.0,2.0,65,0.00,,,0.00,WUHU216DAVISWMX,2013-08-12 20:02:00,
2013-08-12 16:07:00,78.5,66.4,29.97,South,177,1.0,3.0,66,0.00,,,0.00,WUHU216DAVISWMX,2013-08-12 20:07:00,
2013-08-12 16:12:00,78.5,66.4,29.97,South,178,1.0,3.0,66,0.00,,,0.00,WUHU216DAVISWMX,2013-08-12 20:12:00,
2013-08-12 16:17:00,78.6,65.6,29.97,South,177,0.0,2.0,64,0.00,,,0.00,WUHU216DAVISWMX,2013-08-12 20:17:00,
2013-08-12 16:22:00,78.6,66.1,29.97,South,177,0.0,1.0,65,0.00,,,0.00,WUHU216DAVISWMX,2013-08-12 20:22:00,
2013-08-12 16:27:00,78.5,66.4,29.97,South,177,0.0,2.0,66,0.00,,,0.00,WUHU216DAVISWMX,2013-08-12 20:27:00,
2013-08-12 16:32:00,78.3,66.7,29.97,South,178,0.0,2.0,67,0.00,,,0.00,WUHU216DAVISWMX,2013-08-12 20:32:00,
2013-08-12 16:37:00,78.3,66.7,29.96,South,187,0.0,3.0,67,0.00,,,0.00,WUHU216DAVISWMX,2013-08-12 20:37:00,
2013-08-12 16:42:00,78.2,67.0,29.97,South,187,0.0,3.0,68,0.00,,,0.00,WUHU216DAVISWMX,2013-08-12 20:42:00,
2013-08-12 16:47:00,78.0,66.4,29.97,South,187,0.0,1.0,67,0.00,,,0.00,WUHU216DAVISWMX,2013-08-12 20:47:00,
2013-08-12 16:52:00,77.9,66.7,29.96,South,188,0.0,1.0,68,0.00,,,0.00,WUHU216DAVISWMX,2013-08-12 20:52:00,
2013-08-12 16:57:00,77.8,67.0,29.97,South,187,0.0,1.0,69,0.00,,,0.00,WUHU216DAVISWMX,2013-08-12 20:57:00,
2013-08-12 17:02:00,77.5,66.7,29.97,South,187,0.0,1.0,69,0.00,,,0.00,WUHU216DAVISWMX,2013-08-12 21:02:00,
2013-08-12 17:07:00,77.3,66.1,29.97,South,187,0.0,1.0,68,0.00,,,0.00,WUHU216DAVISWMX,2013-08-12 21:07:00,
2013-08-12 17:12:00,77.2,68.1,29.97,South,187,0.0,0.0,73,0.00,,,0.00,WUHU216DAVISWMX,2013-08-12 21:12:00,
2013-08-12 17:17:00,77.1,68.0,29.97,South,187,0.0,0.0,73,0.00,,,0.00,WUHU216DAVISWMX,2013-08-12 21:17:00,
2013-08-12 17:22:00,77.1,66.8,29.97,South,189,1.0,2.0,70,0.00,,,0.00,WUHU216DAVISWMX,2013-08-12 21:22:00,
2013-08-12 17:27:00,77.3,67.4,29.96,SW,233,1.0,2.0,71,0.00,,,0.00,WUHU216DAVISWMX,2013-08-12 21:27:00,
2013-08-12 17:32:00,77.3,67.4,29.96,SW,233,0.0,2.0,71,0.00,,,0.00,WUHU216DAVISWMX,2013-08-12 21:32:00,
2013-08-12 17:37:00,77.3,67.0,29.96,SW,220,1.0,2.0,70,0.00,,,0.00,WUHU216DAVISWMX,2013-08-12 21:37:00,
2013-08-12 17:42:00,77.0,66.7,29.96,SSW,195,0.0,2.0,70,0.00,,,0.00,WUHU216DAVISWMX,2013-08-12 21:42:00,
2013-08-12 17:47:00,76.9,67.0,29.96,South,190,0.0,3.0,71,0.00,,,0.00,WUHU216DAVISWMX,2013-08-12 21:47:00,
2013-08-12 17:52:00,76.9,67.0,29.96,South,190,0.0,3.0,71,0.00,,,0.00,WUHU216DAVISWMX,2013-08-12 21:52:00,
2013-08-12 17:57:00,77.0,67.5,29.96,South,191,2.0,2.0,72,0.00,,,0.00,WUHU216DAVISWMX,2013-08-12 21:57:00,
2013-08-12 18:02:00,77.1,67.6,29.96,SSW,200,3.0,3.0,72,0.00,,,0.00,WUHU216DAVISWMX,2013-08-12 22:02:00,
2013-08-12 18:07:00,77.0,67.5,29.96,SSW,200,0.0,3.0,72,0.00,,,0.00,WUHU216DAVISWMX,2013-08-12 22:07:00,
2013-08-12 18:12:00,76.7,67.6,29.96,SSW,200,0.0,1.0,73,0.00,,,0.00,WUHU216DAVISWMX,2013-08-12 22:12:00,
2013-08-12 18:17:00,76.6,67.5,29.96,SSW,200,0.0,0.0,73,0.00,,,0.00,WUHU216DAVISWMX,2013-08-12 22:17:00,
2013-08-12 18:22:00,76.3,67.2,29.96,SSW,200,0.0,1.0,73,0.00,,,0.00,WUHU216DAVISWMX,2013-08-12 22:22:00,
2013-08-12 18:27:00,76.2,67.5,29.96,SSW,200,0.0,1.0,74,0.00,,,0.00,WUHU216DAVISWMX,2013-08-12 22:27:00,
2013-08-12 18:32:00,76.1,68.5,29.96,SSW,200,0.0,0.0,77,0.00,,,0.00,WUHU216DAVISWMX,2013-08-12 22:32:00,
2013-08-12 18:37:00,75.9,68.3,29.96,SSW,200,0.0,0.0,77,0.00,,,0.00,WUHU216DAVISWMX,2013-08-12 22:37:00,
2013-08-12 18:42:00,75.8,68.2,29.96,SSW,200,0.0,0.0,77,0.00,,,0.00,WUHU216DAVISWMX,2013-08-12 22:42:00,
2013-08-12 18:47:00,75.7,68.5,29.95,SSW,200,0.0,0.0,78,0.00,,,0.00,WUHU216DAVISWMX,2013-08-12 22:47:00,
2013-08-12 18:52:00,75.6,68.7,29.95,SSW,200,0.0,0.0,79,0.00,,,0.00,WUHU216DAVISWMX,2013-08-12 22:52:00,
2013-08-12 18:57:00,75.5,69.0,29.96,SSW,200,0.0,0.0,80,0.00,,,0.00,WUHU216DAVISWMX,2013-08-12 22:57:00,
2013-08-12 19:02:00,75.3,68.8,29.95,SSW,200,0.0,0.0,80,0.00,,,0.00,WUHU216DAVISWMX,2013-08-12 23:02:00,
2013-08-12 19:07:00,75.1,68.6,29.95,SSW,200,0.0,0.0,80,0.00,,,0.00,WUHU216DAVISWMX,2013-08-12 23:07:00,
2013-08-12 19:12:00,74.8,68.7,29.95,SSW,200,0.0,0.0,81,0.00,,,0.00,WUHU216DAVISWMX,2013-08-12 23:12:00,
2013-08-12 19:17:00,74.9,69.1,29.95,SSW,200,0.0,0.0,82,0.00,,,0.00,WUHU216DAVISWMX,2013-08-12 23:17:00,
2013-08-12 19:22:00,74.6,69.5,29.95,SSW,200,0.0,0.0,84,0.00,,,0.00,WUHU216DAVISWMX,2013-08-12 23:22:00,
2013-08-12 19:27:00,74.3,69.2,29.95,SSW,199,0.0,0.0,84,0.00,,,0.00,WUHU216DAVISWMX,2013-08-12 23:27:00,
2013-08-12 19:32:00,74.2,69.4,29.96,SSW,200,0.0,0.0,85,0.00,,,0.00,WUHU216DAVISWMX,2013-08-12 23:32:00,
2013-08-12 19:37:00,74.0,68.9,29.96,SSW,199,0.0,0.0,84,0.00,,,0.00,WUHU216DAVISWMX,2013-08-12 23:37:00,
2013-08-12 19:42:00,73.7,68.9,29.96,SSW,200,0.0,0.0,85,0.00,,,0.00,WUHU216DAVISWMX,2013-08-12 23:42:00,
2013-08-12 19:47:00,73.4,69.0,29.96,SSW,199,0.0,0.0,86,0.00,,,0.00,WUHU216DAVISWMX,2013-08-12 23:47:00,
2013-08-12 19:52:00,73.1,68.7,29.96,SSW,200,0.0,0.0,86,0.00,,,0.00,WUHU216DAVISWMX,2013-08-12 23:52:00,
2013-08-12 19:57:00,72.9,68.5,29.96,SSW,200,0.0,0.0,86,0.00,,,0.00,WUHU216DAVISWMX,2013-08-12 23:57:00,
2013-08-12 20:02:00,72.8,68.7,29.96,SSW,200,0.0,0.0,87,0.00,,,0.00,WUHU216DAVISWMX,2013-08-13 00:02:00,
2013-08-12 20:07:00,72.6,68.5,29.96,SSW,201,0.0,0.0,87,0.00,,,0.00,WUHU216DAVISWMX,2013-08-13 00:07:00,
2013-08-12 20:12:00,72.2,68.8,29.96,SSW,200,0.0,0.0,89,0.00,,,0.00,WUHU216DAVISWMX,2013-08-13 00:12:00,
2013-08-12 20:17:00,72.1,68.7,29.96,SSW,200,0.0,0.0,89,0.00,,,0.00,WUHU216DAVISWMX,2013-08-13 00:17:00,
2013-08-12 20:22:00,71.7,68.3,29.96,SSW,200,0.0,0.0,89,0.00,,,0.00,WUHU216DAVISWMX,2013-08-13 00:22:00,
2013-08-12 20:27:00,71.6,68.2,29.96,SSW,200,0.0,0.0,89,0.00,,,0.00,WUHU216DAVISWMX,2013-08-13 00:27:00,
2013-08-12 20:32:00,71.3,68.2,29.96,SSW,200,0.0,0.0,90,0.00,,,0.00,WUHU216DAVISWMX,2013-08-13 00:32:00,
2013-08-12 20:37:00,71.1,68.0,29.96,SSW,200,0.0,0.0,90,0.00,,,0.00,WUHU216DAVISWMX,2013-08-13 00:37:00,
2013-08-12 20:42:00,70.8,68.0,29.96,SSW,200,0.0,0.0,91,0.00,,,0.00,WUHU216DAVISWMX,2013-08-13 00:42:00,
2013-08-12 20:47:00,70.7,67.9,29.96,SSW,200,0.0,0.0,91,0.00,,,0.00,WUHU216DAVISWMX,2013-08-13 00:47:00,
2013-08-12 20:52:00,70.7,67.9,29.96,SSW,200,0.0,0.0,91,0.00,,,0.00,WUHU216DAVISWMX,2013-08-13 00:52:00,
2013-08-12 20:57:00,70.4,67.9,29.96,SSW,200,0.0,0.0,92,0.00,,,0.00,WUHU216DAVISWMX,2013-08-13 00:57:00,
2013-08-12 21:02:00,70.2,67.7,29.96,SSW,200,0.0,0.0,92,0.00,,,0.00,WUHU216DAVISWMX,2013-08-13 01:02:00,
2013-08-12 21:07:00,70.2,67.7,29.97,SSW,200,0.0,0.0,92,0.00,,,0.00,WUHU216DAVISWMX,2013-08-13 01:07:00,
2013-08-12 21:12:00,70.0,67.5,29.97,SSW,200,0.0,0.0,92,0.00,,,0.00,WUHU216DAVISWMX,2013-08-13 01:12:00,
2013-08-12 21:17:00,69.8,67.7,29.97,SSW,200,0.0,0.0,93,0.00,,,0.00,WUHU216DAVISWMX,2013-08-13 01:17:00,
2013-08-12 21:22:00,69.5,67.4,29.97,SSW,200,0.0,0.0,93,0.00,,,0.00,WUHU216DAVISWMX,2013-08-13 01:22:00,
2013-08-12 21:27:00,69.3,67.5,29.97,SSW,200,0.0,0.0,94,0.00,,,0.00,WUHU216DAVISWMX,2013-08-13 01:27:00,
2013-08-12 21:32:00,69.1,67.0,29.97,SSW,200,0.0,0.0,93,0.00,,,0.00,WUHU216DAVISWMX,2013-08-13 01:32:00,
2013-08-12 21:38:00,68.8,67.0,29.96,SSW,200,0.0,0.0,94,0.00,,,0.00,WUHU216DAVISWMX,2013-08-13 01:38:00,
2013-08-12 21:43:00,68.9,66.8,29.96,SSW,200,0.0,0.0,93,0.00,,,0.00,WUHU216DAVISWMX,2013-08-13 01:43:00,
2013-08-12 21:48:00,68.6,66.5,29.96,SSW,199,0.0,0.0,93,0.00,,,0.00,WUHU216DAVISWMX,2013-08-13 01:48:00,
2013-08-12 21:53:00,68.4,66.6,29.97,SSW,200,0.0,0.0,94,0.00,,,0.00,WUHU216DAVISWMX,2013-08-13 01:53:00,
2013-08-12 21:58:00,68.3,66.5,29.97,SSW,201,0.0,0.0,94,0.00,,,0.00,WUHU216DAVISWMX,2013-08-13 01:58:00,
2013-08-12 22:03:00,68.2,66.4,29.96,SSW,200,0.0,0.0,94,0.00,,,0.00,WUHU216DAVISWMX,2013-08-13 02:03:00,
2013-08-12 22:08:00,67.8,66.0,29.96,SSW,200,0.0,0.0,94,0.00,,,0.00,WUHU216DAVISWMX,2013-08-13 02:08:00,
2013-08-12 22:13:00,67.5,65.7,29.96,SSW,200,0.0,0.0,94,0.00,,,0.00,WUHU216DAVISWMX,2013-08-13 02:13:00,
2013-08-12 22:18:00,67.5,65.7,29.97,SSW,200,0.0,0.0,94,0.00,,,0.00,WUHU216DAVISWMX,2013-08-13 02:18:00,
2013-08-12 22:23:00,67.5,65.7,29.97,SSW,200,0.0,0.0,94,0.00,,,0.00,WUHU216DAVISWMX,2013-08-13 02:23:00,
2013-08-12 22:28:00,67.4,65.9,29.97,SSW,200,0.0,0.0,95,0.00,,,0.00,WUHU216DAVISWMX,2013-08-13 02:28:00,
2013-08-12 22:33:00,67.1,65.6,29.97,SSW,200,0.0,0.0,95,0.00,,,0.00,WUHU216DAVISWMX,2013-08-13 02:33:00,
2013-08-12 22:38:00,67.0,65.5,29.96,SSW,200,0.0,0.0,95,0.00,,,0.00,WUHU216DAVISWMX,2013-08-13 02:38:00,
2013-08-12 22:43:00,66.8,65.3,29.97,SSW,200,0.0,0.0,95,0.00,,,0.00,WUHU216DAVISWMX,2013-08-13 02:43:00,
2013-08-12 22:48:00,66.9,65.4,29.97,SSW,200,0.0,0.0,95,0.00,,,0.00,WUHU216DAVISWMX,2013-08-13 02:48:00,
2013-08-12 22:53:00,66.6,64.8,29.96,SSW,199,0.0,0.0,94,0.00,,,0.00,WUHU216DAVISWMX,2013-08-13 02:53:00,
2013-08-12 22:58:00,66.7,65.2,29.96,SSW,200,0.0,0.0,95,0.00,,,0.00,WUHU216DAVISWMX,2013-08-13 02:58:00,
2013-08-12 23:03:00,66.3,64.8,29.96,SSW,200,0.0,0.0,95,0.00,,,0.00,WUHU216DAVISWMX,2013-08-13 03:03:00,
2013-08-12 23:08:00,66.4,64.9,29.96,SSW,200,0.0,0.0,95,0.00,,,0.00,WUHU216DAVISWMX,2013-08-13 03:08:00,
2013-08-12 23:13:00,66.0,64.8,29.96,SSW,200,0.0,0.0,96,0.00,,,0.00,WUHU216DAVISWMX,2013-08-13 03:13:00,
2013-08-12 23:18:00,66.2,65.0,29.97,SSW,200,0.0,0.0,96,0.00,,,0.00,WUHU216DAVISWMX,2013-08-13 03:18:00,
2013-08-12 23:23:00,66.0,64.8,29.96,SSW,200,0.0,0.0,96,0.00,,,0.00,WUHU216DAVISWMX,2013-08-13 03:23:00,
2013-08-12 23:28:00,65.9,64.7,29.96,SSW,200,0.0,0.0,96,0.00,,,0.00,WUHU216DAVISWMX,2013-08-13 03:28:00,
2013-08-12 23:33:00,65.9,64.7,29.96,SSW,200,0.0,0.0,96,0.00,,,0.00,WUHU216DAVISWMX,2013-08-13 03:33:00,
2013-08-12 23:38:00,65.7,64.5,29.95,SSW,200,0.0,0.0,96,0.00,,,0.00,WUHU216DAVISWMX,2013-08-13 03:38:00,
2013-08-12 23:43:00,65.7,64.5,29.95,SSW,200,0.0,0.0,96,0.00,,,0.00,WUHU216DAVISWMX,2013-08-13 03:43:00,
2013-08-12 23:48:00,65.3,64.4,29.96,SSW,200,0.0,0.0,97,0.00,,,0.00,WUHU216DAVISWMX,2013-08-13 03:48:00,
2013-08-12 23:53:00,65.4,64.5,29.96,SSW,199,0.0,0.0,97,0.00,,,0.00,WUHU216DAVISWMX,2013-08-13 03:53:00,
2013-08-12 23:58:00,65.4,64.2,29.96,SSW,200,0.0,0.0,96,0.00,,,0.00,WUHU216DAVISWMX,2013-08-13 03:58:00,